Hourly Weather Al Kharj

Today, 24 November, Tuesday

Time Temperature Precipitation Wind Pressure Humidity
00:00 +16°C° 0 mm 2 mps 726 mmHg 43%
01:00 +15°C° 0 mm 2 mps 726 mmHg 45%
02:00 +15°C° 0 mm 2 mps 725 mmHg 47%
03:00 +14°C° 0 mm 2 mps 725 mmHg 49%
04:00 +14°C° 0 mm 2 mps 725 mmHg 49%
05:00 +14°C° 0 mm 2 mps 726 mmHg 50%
06:00 +14°C° 0 mm 2 mps 726 mmHg 50%
07:00 +16°C° 0 mm 2 mps 726 mmHg 45%
08:00 +18°C° 0 mm 3 mps 727 mmHg 39%
09:00 +20°C° 0 mm 3 mps 727 mmHg 32%
10:00 +22°C° 0 mm 3 mps 726 mmHg 30%
11:00 +24°C° 0 mm 3 mps 726 mmHg 27%
12:00 +26°C° 0 mm 3 mps 726 mmHg 25%
13:00 +26°C° 0 mm 3 mps 725 mmHg 24%
14:00 +27°C° 0 mm 3 mps 724 mmHg 24%
15:00 +27°C° 0 mm 3 mps 724 mmHg 23%
16:00 +26°C° 0 mm 3 mps 724 mmHg 26%
17:00 +24°C° 0 mm 3 mps 724 mmHg 29%
18:00 +21°C° 0 mm 3 mps 725 mmHg 32%
19:00 +20°C° 0 mm 3 mps 725 mmHg 33%
20:00 +19°C° 0 mm 3 mps 725 mmHg 33%
21:00 +17°C° 0 mm 3 mps 725 mmHg 33%
22:00 +16°C° 0 mm 2 mps 725 mmHg 34%
23:00 +15°C° 0 mm 2 mps 725 mmHg 35%

Tomorrow, 25 November, Wednesday

Time Temperature Precipitation Wind Pressure Humidity
00:00 +14°C° 0 mm 1 mps 725 mmHg 36%
01:00 +14°C° 0 mm 1 mps 724 mmHg 38%
02:00 +13°C° 0 mm 1 mps 724 mmHg 39%
03:00 +12°C° 0 mm 1 mps 723 mmHg 41%
04:00 +11°C° 0 mm 0 mps 724 mmHg 42%
05:00 +11°C° 0 mm 0 mps 724 mmHg 43%
06:00 +10°C° 0 mm 0 mps 724 mmHg 44%
07:00 +14°C° 0 mm 1 mps 725 mmHg 38%
08:00 +18°C° 0 mm 1 mps 725 mmHg 31%
09:00 +21°C° 0 mm 1 mps 726 mmHg 25%
10:00 +21°C° 0 mm 2 mps 725 mmHg 24%
11:00 +24°C° 0 mm 2 mps 725 mmHg 22%
12:00 +26°C° 0 mm 2 mps 725 mmHg 20%
13:00 +27°C° 0 mm 2 mps 724 mmHg 19%
14:00 +27°C° 0 mm 2 mps 724 mmHg 19%
15:00 +28°C° 0 mm 3 mps 723 mmHg 18%
16:00 +26°C° 0 mm 3 mps 723 mmHg 21%
17:00 +23°C° 0 mm 4 mps 723 mmHg 23%
18:00 +21°C° 0 mm 4 mps 724 mmHg 25%
19:00 +20°C° 0 mm 4 mps 724 mmHg 26%
20:00 +19°C° 0 mm 4 mps 724 mmHg 27%
21:00 +18°C° 0 mm 4 mps 724 mmHg 28%
22:00 +17°C° 0 mm 4 mps 724 mmHg 29%
23:00 +17°C° 0 mm 3 mps 724 mmHg 30%

Day after tomorrow, 26 November, Thursday

Time Temperature Precipitation Wind Pressure Humidity
00:00 +16°C° 0 mm 3 mps 724 mmHg 31%
01:00 +14°C° 0 mm 3 mps 723 mmHg 32%
02:00 +15°C° 0 mm 2 mps 723 mmHg 33%
03:00 +14°C° 0 mm 2 mps 722 mmHg 33%
04:00 +13°C° 0 mm 3 mps 723 mmHg 33%
05:00 +13°C° 0 mm 3 mps 723 mmHg 33%
06:00 +13°C° 0 mm 3 mps 723 mmHg 32%
07:00 +17°C° 0 mm 3 mps 724 mmHg 28%
08:00 +19°C° 0 mm 4 mps 724 mmHg 24%
09:00 +21°C° 0 mm 4 mps 725 mmHg 21%
10:00 +23°C° 0 mm 5 mps 724 mmHg 19%
11:00 +26°C° 0 mm 5 mps 724 mmHg 17%
12:00 +28°C° 0 mm 6 mps 724 mmHg 15%
13:00 +29°C° 0 mm 5 mps 723 mmHg 15%
14:00 +29°C° 0 mm 5 mps 723 mmHg 14%
15:00 +29°C° 0 mm 5 mps 722 mmHg 13%
16:00 +27°C° 0 mm 5 mps 723 mmHg 16%
17:00 +25°C° 0 mm 5 mps 723 mmHg 18%
18:00 +22°C° 0 mm 5 mps 723 mmHg 20%
19:00 +22°C° 0 mm 5 mps 723 mmHg 22%
20:00 +21°C° 0 mm 4 mps 723 mmHg 25%
21:00 +21°C° 0 mm 4 mps 723 mmHg 27%
22:00 +20°C° 0 mm 4 mps 723 mmHg 29%
23:00 +20°C° 0 mm 4 mps 723 mmHg 31%

27 November, Friday

Time Temperature Precipitation Wind Pressure Humidity
00:00 +20°C° 0 mm 4 mps 723 mmHg 33%
01:00 +20°C° 0 mm 3 mps 723 mmHg 34%
02:00 +20°C° 0 mm 3 mps 723 mmHg 34%
03:00 +20°C° 0 mm 3 mps 723 mmHg 35%
04:00 +20°C° 0 mm 3 mps 724 mmHg 35%
05:00 +21°C° 0 mm 3 mps 724 mmHg 34%
06:00 +21°C° 0 mm 3 mps 724 mmHg 34%
07:00 +22°C° 0 mm 5 mps 725 mmHg 35%
08:00 +22°C° 0 mm 6 mps 725 mmHg 36%
09:00 +23°C° 0 mm 8 mps 726 mmHg 37%
10:00 +23°C° 0 mm 8 mps 725 mmHg 38%
11:00 +23°C° 0 mm 8 mps 725 mmHg 38%
12:00 +24°C° 0 mm 8 mps 725 mmHg 39%
13:00 +22°C° 0.3 mm 7 mps 725 mmHg 50%
14:00 +20°C° 0.3 mm 6 mps 724 mmHg 60%
15:00 +17°C° 0.3 mm 5 mps 724 mmHg 71%
16:00 +17°C° 2.3 mm 5 mps 725 mmHg 77%
17:00 +16°C° 2.3 mm 5 mps 725 mmHg 82%
18:00 +15°C° 2.3 mm 4 mps 725 mmHg 88%
19:00 +18°C° 1.1 mm 4 mps 726 mmHg 79%
20:00 +19°C° 1.1 mm 4 mps 726 mmHg 71%
21:00 +21°C° 1.1 mm 4 mps 727 mmHg 62%
22:00 +21°C° 0 mm 3 mps 726 mmHg 61%
23:00 +21°C° 0 mm 3 mps 726 mmHg 61%

28 November, Saturday

Time Temperature Precipitation Wind Pressure Humidity
00:00 +21°C° 0 mm 2 mps 726 mmHg 61%
01:00 +21°C° 0.1 mm 4 mps 725 mmHg 62%
02:00 +21°C° 0.1 mm 5 mps 725 mmHg 63%
03:00 +21°C° 0.1 mm 6 mps 725 mmHg 65%
04:00 +21°C° 0 mm 5 mps 725 mmHg 64%
05:00 +21°C° 0 mm 5 mps 725 mmHg 64%
06:00 +21°C° 0 mm 4 mps 725 mmHg 63%
07:00 +22°C° 0 mm 5 mps 726 mmHg 58%
08:00 +23°C° 0 mm 6 mps 726 mmHg 53%
09:00 +24°C° 0 mm 7 mps 726 mmHg 49%
10:00 +26°C° 0 mm 7 mps 726 mmHg 43%
11:00 +28°C° 0 mm 7 mps 725 mmHg 37%
12:00 +29°C° 0 mm 7 mps 724 mmHg 31%
13:00 +29°C° 0 mm 7 mps 724 mmHg 30%
14:00 +29°C° 0 mm 7 mps 724 mmHg 28%
15:00 +29°C° 0 mm 7 mps 723 mmHg 27%
16:00 +28°C° 0 mm 6 mps 723 mmHg 28%
17:00 +28°C° 0 mm 5 mps 724 mmHg 30%
18:00 +27°C° 0 mm 4 mps 724 mmHg 31%
19:00 +26°C° 0.1 mm 4 mps 724 mmHg 35%
20:00 +25°C° 0.1 mm 4 mps 724 mmHg 39%
21:00 +24°C° 0.1 mm 3 mps 724 mmHg 43%
22:00 +23°C° 0 mm 4 mps 724 mmHg 42%
23:00 +23°C° 0 mm 4 mps 724 mmHg 42%

29 November, Sunday

Time Temperature Precipitation Wind Pressure Humidity
00:00 +23°C° 0 mm 5 mps 724 mmHg 42%
01:00 +23°C° 0 mm 5 mps 723 mmHg 43%
02:00 +23°C° 0 mm 5 mps 723 mmHg 43%
03:00 +22°C° 0 mm 5 mps 723 mmHg 44%
04:00 +22°C° 0 mm 4 mps 723 mmHg 44%
05:00 +22°C° 0 mm 4 mps 723 mmHg 44%
06:00 +21°C° 0 mm 4 mps 723 mmHg 44%
07:00 +22°C° 0 mm 5 mps 724 mmHg 41%
08:00 +23°C° 0 mm 6 mps 724 mmHg 38%
09:00 +24°C° 0 mm 7 mps 724 mmHg 35%
10:00 +26°C° 0 mm 7 mps 724 mmHg 33%
11:00 +27°C° 0 mm 6 mps 723 mmHg 31%
12:00 +28°C° 0 mm 6 mps 723 mmHg 30%
13:00 +28°C° 0 mm 6 mps 723 mmHg 29%
14:00 +29°C° 0 mm 5 mps 722 mmHg 29%
15:00 +29°C° 0 mm 4 mps 722 mmHg 29%
16:00 +28°C° 0 mm 3 mps 722 mmHg 31%
17:00 +27°C° 0 mm 2 mps 722 mmHg 34%
18:00 +26°C° 0 mm 1 mps 722 mmHg 37%
19:00 +26°C° 0 mm 2 mps 723 mmHg 37%
20:00 +26°C° 0 mm 2 mps 723 mmHg 37%
21:00 +26°C° 0 mm 3 mps 723 mmHg 37%
22:00 +25°C° 0 mm 3 mps 723 mmHg 39%
23:00 +25°C° 0 mm 3 mps 724 mmHg 40%
Show more